Torna al catalogo

DOVE 3

AttivoScienzaSSO
NORAD 39429·PAYLOAD·🇺🇸 United States

Lanciato Nov 21, 2013 da Dombarovsky

Loading…

Prossimi Passaggi (prossime 24 ore)

TLE

AggiornatoSource: Space-Track

Epoca: Sep 14, 2026, 13:14 UTC

1 39429U 13066P   26257.55166464  .00002079  00000-0  27404-3 0  9990
2 39429  97.6512 112.8101 0114493  94.3387 267.0916 14.76606057684190

Traccia DOVE 3 in tempo reale con AllMySat

Download on the App Store